Gastonia, NC

6:09 AM EST on January 23, 2017 (GMT -0500)
Gastonia Municipal

Weather History for KAKH - December, 2012

Change the Weather History Date:

Saturday, December 1, 2012

  Actual Average (KCLT) Record (KCLT)
Temperature  
Mean Temperature 52 °F -  
Max Temperature 66 °F 55 °F 76 °F (1946)
Min Temperature 39 °F 35 °F 15 °F (1964)
Degree Days  
Heating Degree Days 12    
Growing Degree Days 2 (Base 50)    
Moisture  
Dew Point 43 °F    
Average Humidity 83    
Maximum Humidity 100    
Minimum Humidity 48    
Precipitation  
Precipitation 0.00 in - - ()
Sea Level Pressure  
Sea Level Pressure 30.35 in    
Wind  
Wind Speed 0 mph (NNW)    
Max Wind Speed 5 mph    
Max Gust Speed -    
Visibility 6 miles    
Events Fog    
Averages and records for this station are not official NWS values.
T = Trace of Precipitation, MM = Missing Value Source: NWS Daily Summary

Daily Weather History Graph

Daily Weather History Graph

Search for Another Location

Airport or City:

Trip Planner

Search our weather history database for the weather conditions in past years. The results will help you decide how hot, cold, wet, or windy it might be!

Date:

Astronomy

Dec. 01, 2012 Rise Set
Actual Time 7:15 AM EST 5:12 PM EST
Civil Twilight 6:47 AM EST 5:40 PM EST
Nautical Twilight 6:15 AM EST 6:11 PM EST
Astronomical Twilight 5:45 AM EST 6:42 PM EST
Moon 7:59 PM EST (12/1) 9:28 AM EST (12/1)
Length of Visible Light 10h 52m
Length of Day
9h 57m
Waning Gibbous, 92% of the Moon is Illuminated
Dec 1
Waning Gibbous
Dec 6
Last Quarter
Dec 13
New
Dec 20
First Quarter
Dec 28
Full

Hourly Weather History & Observations

Time (EST) Temp. Windchill Dew Point Humidity Pressure Visibility Wind Dir Wind Speed Gust Speed Precip Events Conditions
12:54 AM 42.1 °F - 39.9 °F 92% 30.31 in 5.0 mi Calm Calm - N/A   Clear
1:48 AM 41.0 °F - 39.2 °F 93% 30.31 in 1.8 mi Calm Calm - N/A   Clear
1:54 AM 41.0 °F - 39.0 °F 93% 30.32 in 0.5 mi Calm Calm - N/A Fog Fog
2:13 AM 41.0 °F - 39.2 °F 93% 30.31 in 1.2 mi Calm Calm - N/A   Partly Cloudy
2:20 AM 39.2 °F - 39.2 °F 100% 30.31 in 3.0 mi Calm Calm - N/A   Partly Cloudy
2:54 AM 39.0 °F - 37.9 °F 96% 30.32 in 2.5 mi Calm Calm - N/A   Clear
3:06 AM 39.2 °F - 37.4 °F 93% 30.32 in 3.0 mi Calm Calm - N/A   Clear
3:20 AM 39.2 °F - 39.2 °F 100% 30.32 in 2.5 mi Calm Calm - N/A   Clear
4:54 AM 39.0 °F - 39.0 °F 100% 30.32 in 4.0 mi Calm Calm - N/A   Clear
5:19 AM 39.2 °F - 39.2 °F 100% 30.32 in 2.5 mi Calm Calm - N/A   Clear
7:17 AM 41.0 °F 39.0 °F 39.2 °F 93% 30.36 in 2.0 mi North 3.5 mph - N/A   Clear
7:35 AM 39.2 °F - 39.2 °F 100% 30.37 in 3.0 mi Calm Calm - N/A   Clear
7:54 AM 41.0 °F - 39.9 °F 96% 30.39 in 2.5 mi Calm Calm - N/A   Clear
8:04 AM 42.8 °F - 42.8 °F 100% 30.38 in 1.8 mi Calm Calm - N/A   Clear
8:11 AM 42.8 °F - 42.8 °F 100% 30.38 in 2.5 mi Calm Calm - N/A   Clear
8:24 AM 44.6 °F 42.2 °F 44.6 °F 100% 30.39 in 4.0 mi Variable 4.6 mph - N/A   Clear
8:54 AM 48.9 °F - 45.0 °F 86% 30.40 in 5.0 mi NNE 3.5 mph - N/A   Clear
9:54 AM 51.1 °F - 44.1 °F 77% 30.41 in 7.0 mi Calm Calm - N/A   Clear
10:54 AM 57.0 °F - 45.0 °F 64% 30.41 in 10.0 mi Calm Calm - N/A   Clear
11:54 AM 62.1 °F - 48.0 °F 60% 30.38 in 10.0 mi WSW 4.6 mph - N/A   Clear
12:54 PM 63.0 °F - 48.0 °F 58% 30.35 in 10.0 mi Calm Calm - N/A   Clear
1:54 PM 64.0 °F - 48.0 °F 56% 30.33 in 10.0 mi Calm Calm - N/A   Partly Cloudy
2:54 PM 64.9 °F - 45.0 °F 48% 30.32 in 10.0 mi Variable 4.6 mph - N/A   Clear
3:54 PM 66.0 °F - 46.0 °F 48% 30.32 in 10.0 mi Calm Calm - N/A   Scattered Clouds
4:54 PM 63.0 °F - 45.0 °F 52% 30.33 in 10.0 mi Calm Calm - N/A   Clear
5:54 PM 55.9 °F - 45.0 °F 67% 30.33 in 5.0 mi Calm Calm - N/A   Haze
6:54 PM 53.1 °F - 45.0 °F 74% 30.34 in 10.0 mi Calm Calm - N/A   Clear
7:54 PM 51.1 °F - 45.0 °F 80% 30.36 in 10.0 mi Calm Calm - N/A   Clear
8:54 PM 50.0 °F - 45.0 °F 83% 30.35 in 10.0 mi Calm Calm - N/A   Clear
9:54 PM 48.0 °F - 44.1 °F 86% 30.35 in 10.0 mi Calm Calm - N/A   Clear
10:54 PM 46.9 °F - 44.1 °F 90% 30.36 in 10.0 mi Calm Calm - N/A   Clear
11:54 PM 46.0 °F - 44.1 °F 93% 30.36 in 9.0 mi Calm Calm - N/A   Clear